When you browse on this site, cookies collect data to enhance your experience and personalize the content and advertising you see.
Visit our Privacy Policy to learn more. By continuing to use the site, you agree to this use of cookies and data.
  • In Deutschland
  • Länderverzeichnis
  • Für 7 Tage
  • Wassertemperatur
  • Wetterkarte
  • Widgets
  • user-avatar
    Anmelden

    Stündliche Wetter Corozal

    Heute, 24 Oktober, Donnerstag

    Zeit Temperatur Niederschläge Wind Luftdruck Luftfeuchtigkeit
    00:00 +26°C° 0.3 mm 2 m/S 757 mmHg 95%
    01:00 +26°C° 0 mm 2 m/S 757 mmHg 94%
    02:00 +26°C° 0 mm 2 m/S 757 mmHg 94%
    03:00 +27°C° 0 mm 2 m/S 756 mmHg 93%
    04:00 +26°C° 0.6 mm 2 m/S 757 mmHg 94%
    05:00 +26°C° 0.6 mm 2 m/S 757 mmHg 95%
    06:00 +26°C° 0.6 mm 2 m/S 757 mmHg 95%
    07:00 +27°C° 0.6 mm 2 m/S 757 mmHg 92%
    08:00 +29°C° 0.6 mm 3 m/S 758 mmHg 89%
    09:00 +30°C° 0.6 mm 3 m/S 758 mmHg 85%
    10:00 +31°C° 0.5 mm 3 m/S 758 mmHg 81%
    11:00 +33°C° 0.5 mm 3 m/S 757 mmHg 76%
    12:00 +33°C° 0.5 mm 3 m/S 757 mmHg 71%
    13:00 +33°C° 0.1 mm 3 m/S 756 mmHg 71%
    14:00 +33°C° 0.1 mm 3 m/S 756 mmHg 70%
    15:00 +33°C° 0.1 mm 3 m/S 755 mmHg 70%
    16:00 +30°C° 0.1 mm 3 m/S 755 mmHg 77%
    17:00 +29°C° 0.1 mm 3 m/S 756 mmHg 83%
    18:00 +27°C° 0.1 mm 2 m/S 756 mmHg 90%
    19:00 +27°C° 0.1 mm 2 m/S 757 mmHg 92%
    20:00 +27°C° 0.1 mm 2 m/S 757 mmHg 94%
    21:00 +26°C° 0.1 mm 2 m/S 758 mmHg 95%
    22:00 +26°C° 0 mm 2 m/S 757 mmHg 95%
    23:00 +26°C° 0 mm 2 m/S 757 mmHg 95%

    Morgen, 25 Oktober, Freitag

    Zeit Temperatur Niederschläge Wind Luftdruck Luftfeuchtigkeit
    00:00 +26°C° 0 mm 2 m/S 757 mmHg 95%
    01:00 +26°C° 0.1 mm 2 m/S 757 mmHg 96%
    02:00 +26°C° 0.1 mm 2 m/S 756 mmHg 96%
    03:00 +26°C° 0.1 mm 2 m/S 756 mmHg 96%
    04:00 +26°C° 0.1 mm 2 m/S 756 mmHg 96%
    05:00 +26°C° 0.1 mm 2 m/S 756 mmHg 96%
    06:00 +26°C° 0.1 mm 2 m/S 757 mmHg 96%
    07:00 +27°C° 0.2 mm 2 m/S 757 mmHg 91%
    08:00 +29°C° 0.2 mm 3 m/S 757 mmHg 87%
    09:00 +30°C° 0.2 mm 3 m/S 758 mmHg 82%
    10:00 +31°C° 0.4 mm 3 m/S 757 mmHg 78%
    11:00 +33°C° 0.4 mm 3 m/S 757 mmHg 74%
    12:00 +33°C° 0.4 mm 3 m/S 756 mmHg 69%
    13:00 +33°C° 0.1 mm 3 m/S 756 mmHg 69%
    14:00 +33°C° 0.1 mm 3 m/S 755 mmHg 69%
    15:00 +33°C° 0.1 mm 3 m/S 754 mmHg 69%
    16:00 +31°C° 0 mm 3 m/S 755 mmHg 76%
    17:00 +29°C° 0 mm 2 m/S 755 mmHg 82%
    18:00 +27°C° 0 mm 2 m/S 755 mmHg 89%
    19:00 +27°C° 0 mm 2 m/S 756 mmHg 91%
    20:00 +27°C° 0 mm 2 m/S 756 mmHg 92%
    21:00 +27°C° 0 mm 2 m/S 757 mmHg 94%
    22:00 +27°C° 0 mm 2 m/S 757 mmHg 94%
    23:00 +27°C° 0 mm 2 m/S 757 mmHg 94%

    übermorgen, 26 Oktober, Samstag

    Zeit Temperatur Niederschläge Wind Luftdruck Luftfeuchtigkeit
    00:00 +26°C° 0 mm 2 m/S 756 mmHg 94%
    01:00 +26°C° 0.1 mm 1 m/S 756 mmHg 94%
    02:00 +26°C° 0.1 mm 1 m/S 756 mmHg 94%
    03:00 +26°C° 0.1 mm 1 m/S 756 mmHg 94%
    04:00 +26°C° 0.1 mm 1 m/S 756 mmHg 94%
    05:00 +26°C° 0.1 mm 1 m/S 756 mmHg 95%
    06:00 +26°C° 0.1 mm 1 m/S 756 mmHg 95%
    07:00 +28°C° 0.1 mm 2 m/S 757 mmHg 91%
    08:00 +29°C° 0.1 mm 2 m/S 757 mmHg 86%
    09:00 +30°C° 0.1 mm 2 m/S 757 mmHg 82%
    10:00 +30°C° 1.1 mm 2 m/S 757 mmHg 83%
    11:00 +31°C° 1.1 mm 2 m/S 756 mmHg 83%
    12:00 +31°C° 1.1 mm 2 m/S 756 mmHg 84%
    13:00 +31°C° 1 mm 2 m/S 756 mmHg 83%
    14:00 +31°C° 1 mm 2 m/S 755 mmHg 83%
    15:00 +31°C° 1 mm 1 m/S 755 mmHg 82%
    16:00 +30°C° 0.9 mm 1 m/S 755 mmHg 86%
    17:00 +28°C° 0.9 mm 1 m/S 756 mmHg 90%
    18:00 +27°C° 0.9 mm 1 m/S 756 mmHg 94%
    19:00 +27°C° 2.4 mm 1 m/S 756 mmHg 94%
    20:00 +26°C° 2.4 mm 1 m/S 757 mmHg 95%
    21:00 +26°C° 2.4 mm 1 m/S 757 mmHg 95%
    22:00 +26°C° 1.7 mm 1 m/S 757 mmHg 95%
    23:00 +26°C° 1.7 mm 1 m/S 757 mmHg 96%

    27 Oktober, Sonntag

    Zeit Temperatur Niederschläge Wind Luftdruck Luftfeuchtigkeit
    00:00 +25°C° 1.7 mm 1 m/S 757 mmHg 96%
    01:00 +25°C° 0.2 mm 1 m/S 757 mmHg 97%
    02:00 +25°C° 0.2 mm 1 m/S 757 mmHg 97%
    03:00 +25°C° 0.2 mm 1 m/S 756 mmHg 98%
    04:00 +25°C° 0 mm 1 m/S 756 mmHg 98%
    05:00 +24°C° 0 mm 1 m/S 757 mmHg 98%
    06:00 +24°C° 0 mm 1 m/S 757 mmHg 98%
    07:00 +26°C° 0 mm 1 m/S 757 mmHg 93%
    08:00 +27°C° 0 mm 1 m/S 758 mmHg 88%
    09:00 +29°C° 0 mm 1 m/S 758 mmHg 83%
    10:00 +30°C° 0 mm 1 m/S 758 mmHg 77%
    11:00 +32°C° 0 mm 1 m/S 757 mmHg 71%
    12:00 +33°C° 0 mm 1 m/S 757 mmHg 65%
    13:00 +32°C° 0.8 mm 1 m/S 756 mmHg 71%
    14:00 +32°C° 0.8 mm 1 m/S 756 mmHg 76%
    15:00 +31°C° 0.8 mm 1 m/S 755 mmHg 81%
    16:00 +29°C° 0.6 mm 1 m/S 755 mmHg 85%
    17:00 +28°C° 0.6 mm 1 m/S 756 mmHg 89%
    18:00 +27°C° 0.6 mm 1 m/S 756 mmHg 93%
    19:00 +27°C° 0 mm 1 m/S 757 mmHg 94%
    20:00 +26°C° 0 mm 1 m/S 757 mmHg 94%
    21:00 +26°C° 0 mm 1 m/S 758 mmHg 94%
    22:00 +26°C° 0.1 mm 1 m/S 758 mmHg 94%
    23:00 +26°C° 0.1 mm 1 m/S 757 mmHg 94%

    28 Oktober, Montag

    Zeit Temperatur Niederschläge Wind Luftdruck Luftfeuchtigkeit
    00:00 +26°C° 0.1 mm 1 m/S 757 mmHg 94%
    01:00 +26°C° 0.1 mm 1 m/S 757 mmHg 95%
    02:00 +26°C° 0.1 mm 1 m/S 757 mmHg 95%
    03:00 +26°C° 0.1 mm 1 m/S 757 mmHg 96%
    04:00 +25°C° 0 mm 1 m/S 757 mmHg 96%
    05:00 +25°C° 0 mm 1 m/S 757 mmHg 97%
    06:00 +25°C° 0 mm 1 m/S 757 mmHg 97%
    07:00 +26°C° 0 mm 1 m/S 758 mmHg 92%
    08:00 +28°C° 0 mm 1 m/S 758 mmHg 87%
    09:00 +30°C° 0 mm 1 m/S 759 mmHg 81%
    10:00 +31°C° 0.6 mm 1 m/S 758 mmHg 79%
    11:00 +31°C° 0.6 mm 1 m/S 758 mmHg 76%
    12:00 +32°C° 0.6 mm 1 m/S 757 mmHg 74%
    13:00 +31°C° 1.9 mm 1 m/S 757 mmHg 78%
    14:00 +31°C° 1.9 mm 2 m/S 756 mmHg 83%
    15:00 +30°C° 1.9 mm 2 m/S 756 mmHg 87%
    16:00 +29°C° 0.9 mm 2 m/S 756 mmHg 89%
    17:00 +28°C° 0.9 mm 2 m/S 757 mmHg 91%
    18:00 +27°C° 0.9 mm 2 m/S 757 mmHg 93%
    19:00 +27°C° 0.3 mm 2 m/S 757 mmHg 94%
    20:00 +27°C° 0.3 mm 2 m/S 758 mmHg 95%
    21:00 +26°C° 0.3 mm 2 m/S 758 mmHg 95%
    22:00 +26°C° 1.2 mm 1 m/S 758 mmHg 96%
    23:00 +26°C° 1.2 mm 1 m/S 758 mmHg 96%

    29 Oktober, Dienstag

    Zeit Temperatur Niederschläge Wind Luftdruck Luftfeuchtigkeit
    00:00 +26°C° 1.2 mm 1 m/S 758 mmHg 96%
    01:00 +26°C° 0.8 mm 1 m/S 757 mmHg 96%
    02:00 +25°C° 0.8 mm 1 m/S 757 mmHg 96%
    03:00 +25°C° 0.8 mm 1 m/S 757 mmHg 96%
    04:00 +25°C° 0.4 mm 1 m/S 757 mmHg 96%
    05:00 +25°C° 0.4 mm 1 m/S 758 mmHg 97%
    06:00 +25°C° 0.4 mm 1 m/S 758 mmHg 97%
    07:00 +26°C° 0.5 mm 1 m/S 758 mmHg 94%
    08:00 +28°C° 0.5 mm 1 m/S 759 mmHg 91%
    09:00 +29°C° 0.5 mm 1 m/S 759 mmHg 88%
    10:00 +30°C° 0.7 mm 1 m/S 759 mmHg 81%
    11:00 +31°C° 0.7 mm 1 m/S 758 mmHg 74%
    12:00 +32°C° 0.7 mm 1 m/S 758 mmHg 67%
    13:00 +32°C° 0.5 mm 1 m/S 757 mmHg 68%
    14:00 +32°C° 0.5 mm 1 m/S 757 mmHg 68%
    15:00 +32°C° 0.5 mm 1 m/S 756 mmHg 68%
    16:00 +30°C° 0.2 mm 1 m/S 757 mmHg 74%
    17:00 +29°C° 0.2 mm 1 m/S 757 mmHg 80%
    18:00 +27°C° 0.2 mm 2 m/S 758 mmHg 86%
    19:00 +27°C° 0 mm 2 m/S 758 mmHg 87%
    20:00 +26°C° 0 mm 2 m/S 759 mmHg 88%
    21:00 +26°C° 0 mm 2 m/S 759 mmHg 89%
    22:00 +26°C° 0.2 mm 2 m/S 759 mmHg 91%
    23:00 +26°C° 0.2 mm 2 m/S 759 mmHg 92%
    Mehr zeigen